User: anonymous   Login
Location: Newark
(52.1031°N, 9.3600°E)
Time: 20:08:48
(UTC+00:00)
Language:

LightSail 2 - Orbit

View from above orbital plane
View from above orbital plane
View from above satellite
View from above satellite

Ground track
Ground track

The orbit data is extracted from the following two-line orbital elements,

1 44420U 19036AC  19286.29869434  .00004892  00000-0  11061-2 0  9998
2 44420  24.0043 232.8579 0011401 279.1003  80.8202 14.53285925 14148
Epoch (UTC): 13 October 2019 07:10:07
Eccentricity: 0.0011401
inclination: 24.0043°
perigee height: 707 km
apogee height: 723 km
right ascension of ascending node: 232.8579°
argument of perigee: 279.1003°
revolutions per day: 14.53285925
mean anomaly at epoch: 80.8202°
orbit number at epoch: 1414

The dashed part of the orbit path shows where the satellite is in the earth's shadow,  

DLR